Theta_e
330 328 338 340 340 340 338 336 334 332 335 341 343 344 343 339 336 335 334 328 323 321 320 317 315 315 315 315 314 313 317 318 328 326 328 324 320 320 325 329 329 329 328
326 327 339 341 341 340 339 337 334 330 332 333 336 339 337 334 333 330 325 320 319 317 316 317 317 317 318 318 318 322 333 332 334 334 332 331 329 321 321 326 327 327 328
325 325 334 341 341 340 339 338 333 330 333 334 333 333 333 333 330 323 319 318 317 318 319 319 321 320 321 321 328 332 333 334 335 335 336 335 335 332 325 321 325 330 331
323 325 332 340 342 340 339 338 331 328 327 329 330 332 332 329 322 319 318 318 319 320 321 321 321 322 322 323 326 330 332 333 334 333 333 333 334 334 329 327 322 323 324
323 324 332 338 342 340 338 337 328 324 323 322 324 331 328 322 319 318 319 320 321 322 322 322 322 322 322 323 324 328 331 334 334 334 333 336 338 338 338 334 328 325 320
323 323 329 335 341 340 339 335 326 321 320 319 325 325 323 319 318 319 320 321 322 322 321 321 321 321 321 321 322 323 328 332 335 335 334 336 336 338 339 338 334 328 327
322 323 326 330 336 339 338 333 325 321 320 319 321 321 319 318 319 320 321 321 321 321 321 321 320 320 320 320 320 321 322 327 332 336 337 336 337 337 338 339 338 328 327
324 323 325 330 332 335 337 331 324 321 319 319 320 320 319 320 321 320 321 321 321 321 320 320 320 320 320 320 320 320 320 320 321 333 334 336 336 337 337 338 338 333 327
330 323 325 330 333 333 336 332 325 321 319 319 319 319 320 321 321 321 321 321 321 321 320 320 320 320 320 319 319 319 319 319 319 319 322 321 336 337 336 336 337 337 330
333 326 322 326 331 333 334 332 329 324 320 320 321 320 320 321 322 321 321 321 321 321 320 320 320 319 319 319 319 318 318 318 318 327 332 326 327 334 334 334 335 337 333
335 328 323 325 329 330 333 332 329 326 322 320 321 322 321 321 322 321 321 321 321 321 320 320 319 319 319 318 318 318 318 318 322 330 333 329 322 327 333 332 333 336 334
343 335 326 322 326 331 334 333 330 327 324 321 321 321 322 322 322 321 321 321 321 321 320 320 319 319 319 318 319 321 325 322 320 327 331 332 331 331 333 333 334 334 333
345 344 331 323 324 326 331 333 332 329 326 323 321 321 322 322 321 321 321 321 321 321 320 320 319 321 322 322 323 328 329 329 328 327 329 331 332 333 333 332 332 333 333
342 347 341 326 322 325 328 331 332 330 327 324 323 321 321 322 322 322 322 321 321 321 320 320 327 328 331 333 331 331 331 331 331 332 332 333 333 334 333 333 332 332 332
337 344 346 334 324 323 326 329 330 330 329 326 324 322 321 322 322 322 322 321 321 321 320 323 330 331 333 335 335 333 333 333 333 333 333 334 334 335 336 335 334 333 333
330 334 347 346 341 327 322 324 326 327 327 326 325 323 322 321 321 321 321 321 321 321 322 324 330 332 332 333 334 333 333 334 333 334 334 334 335 335 337 338 337 336 334
325 325 332 338 337 345 341 324 322 324 327 328 326 324 323 322 322 321 321 321 321 321 323 326 328 330 333 334 331 331 332 333 331 331 333 334 335 335 338 339 339 339 339
323 325 325 325 329 343 345 335 324 322 323 325 326 325 323 323 323 322 321 321 320 320 321 324 328 329 330 332 331 330 332 329 326 329 333 334 335 337 338 339 340 340 339
322 323 325 325 329 340 347 339 328 326 326 328 328 326 324 323 323 322 322 321 320 320 321 325 331 334 333 330 332 332 330 328 326 332 336 333 337 338 338 339 337 340 340
321 323 325 325 327 342 346 342 332 332 334 327 333 334 329 324 322 321 321 321 324 324 326 328 335 337 336 334 332 331 330 325 326 332 331 331 334 335 337 338 337 337 339
321 323 326 325 325 338 345 343 336 335 343 341 329 328 340 334 328 328 323 327 336 338 339 341 341 339 335 333 333 327 328 326 330 331 332 331 331 332 334 337 336 338 338
321 324 326 329 329 326 343 344 341 340 344 346 342 334 333 339 339 338 339 333 340 340 338 340 339 337 334 332 334 334 331 329 333 334 332 331 330 331 331 332 334 337 339
323 324 327 330 342 344 345 345 344 344 343 343 344 342 343 342 340 341 340 338 340 343 342 339 339 337 332 334 335 335 332 335 334 335 333 331 331 330 330 333 336 338 340
320 323 325 326 326 329 335 345 345 343 341 343 341 339 340 343 342 343 341 337 330 332 335 332 334 333 333 333 335 335 333 332 338 339 332 332 331 330 330 332 337 341 338
322 323 324 324 322 321 320 319 329 338 341 340 340 341 341 340 341 341 338 337 335 331 330 330 330 336 335 335 335 338 335 336 339 341 333 331 331 333 333 331 334 339 338
323 323 322 321 320 320 319 317 317 316 327 339 339 340 340 338 337 340 339 338 338 335 334 333 330 330 330 337 337 338 336 337 337 334 331 332 332 332 334 335 336 333 335
Wind_Speed
24 30 32 33 31 28 26 25 25 24 25 25 25 22 19 17 15 13 13 13 13 15 14 14 13 12 11 10 10 11 13 14 15 14 15 14 13 11 10 9 9 9 9
29 32 32 33 31 29 25 24 23 24 24 24 23 21 19 17 15 14 15 15 16 15 15 15 14 13 12 11 11 12 12 11 10 12 12 14 15 14 12 11 10 8 7
31 33 33 32 31 30 27 25 22 23 24 24 24 23 21 19 18 18 18 18 17 16 16 15 15 13 12 12 12 12 11 10 9 9 10 12 14 16 16 14 10 8 8
31 33 33 32 31 30 28 26 24 24 23 23 23 23 23 22 21 21 20 19 18 17 16 15 14 13 12 11 10 9 8 7 7 8 8 9 12 15 17 15 12 9 8
30 32 32 32 31 29 28 26 26 27 26 25 26 25 24 24 23 22 21 20 18 16 14 13 12 12 10 9 8 6 5 4 5 5 8 8 11 13 14 16 14 11 9
28 29 31 31 31 29 27 26 26 27 28 28 28 27 25 24 23 22 20 19 17 15 13 12 11 10 8 6 5 4 2 2 2 4 7 6 6 8 10 13 15 13 11
26 27 30 31 31 30 28 26 26 27 28 29 29 28 26 25 23 21 19 18 16 14 12 10 8 7 6 5 2 1 0 2 4 5 6 7 7 6 7 8 13 13 12
23 27 29 31 31 31 30 29 28 29 29 28 29 28 27 26 23 21 19 17 15 13 11 8 7 5 4 2 1 1 2 4 6 7 7 9 8 7 8 10 12 12 12
21 25 30 31 31 32 31 30 31 31 31 30 29 28 27 25 23 21 18 16 14 12 10 7 5 4 2 1 1 3 4 6 6 8 11 11 9 9 11 11 12 13 12
25 25 29 33 34 34 33 31 30 30 32 32 30 28 26 25 23 21 18 16 13 10 8 6 4 3 2 2 4 6 7 8 8 6 8 10 11 12 12 13 14 14 13
28 29 32 34 35 36 36 34 31 30 29 29 30 30 28 26 24 21 18 15 12 9 6 4 4 4 6 5 6 8 9 8 8 6 7 8 9 10 12 14 14 14 15
30 32 32 34 37 37 37 36 36 34 33 32 31 30 28 26 23 21 18 16 13 10 7 6 6 7 8 8 8 9 8 9 8 9 8 7 7 10 14 15 14 12 13
25 30 35 37 39 39 40 39 38 37 36 34 33 32 29 26 24 22 20 17 14 11 9 8 8 10 10 8 6 5 7 7 9 9 10 10 10 12 14 16 14 11 14
21 27 33 36 38 40 42 42 41 41 40 38 36 33 31 28 26 23 20 17 14 12 10 9 6 4 2 4 4 5 7 10 11 13 12 14 14 14 16 17 17 14 15
18 23 31 33 36 37 41 43 43 43 42 40 37 35 33 31 28 25 22 20 16 14 12 9 7 5 3 4 5 6 8 11 15 18 19 18 17 17 18 17 16 14 16
14 13 25 26 28 32 38 41 42 43 41 39 37 36 34 31 29 27 24 22 19 15 13 12 11 10 9 8 8 10 13 14 16 18 18 18 17 16 18 17 18 17 17
18 16 20 22 24 32 32 38 41 42 42 41 40 38 35 33 30 29 26 25 21 17 15 14 14 13 13 13 13 14 15 17 17 18 19 20 19 17 15 17 19 19 17
21 22 21 22 25 33 37 38 40 43 44 43 41 39 37 34 31 31 28 27 22 19 18 19 16 16 16 18 18 17 19 19 21 21 19 18 19 20 17 16 17 21 18
23 26 27 26 28 30 36 36 39 40 38 37 38 37 37 36 34 32 29 26 23 22 21 20 20 18 19 18 20 20 22 22 20 16 13 17 17 17 18 18 20 17 20
27 28 32 29 27 27 32 32 33 35 34 36 32 33 34 35 35 33 29 25 22 21 21 19 20 18 21 21 21 23 23 22 20 7 19 20 20 17 15 21 21 23 18
31 32 33 30 27 27 32 32 33 35 36 38 37 41 34 33 32 33 32 24 21 19 17 16 17 18 20 22 24 22 25 21 12 6 14 27 27 21 21 23 22 23 20
37 36 32 30 32 30 34 33 34 34 31 29 30 30 32 29 29 30 28 24 19 18 17 17 18 18 22 23 22 21 23 19 10 18 18 25 36 35 32 29 23 22 22
35 36 35 33 34 34 35 35 36 35 35 30 27 27 27 33 37 37 25 18 15 18 22 17 21 23 23 23 25 16 9 7 22 16 23 23 39 38 40 29 19 20 22
31 31 34 33 31 29 30 33 36 38 36 35 32 27 27 30 35 31 29 30 36 31 29 13 23 25 25 25 28 26 22 27 25 19 17 44 33 31 29 26 24 20 23
35 36 35 31 26 24 22 22 25 30 35 39 37 30 26 32 39 34 35 32 35 37 39 52 42 29 29 28 27 28 22 26 26 29 36 48 35 33 29 35 27 22 22
42 40 36 32 27 25 23 20 21 19 24 31 33 29 28 24 24 31 38 37 33 33 30 31 46 49 51 35 23 26 27 30 25 27 35 39 37 41 37 22 20 20 24
Wind_Direction
174 171 164 163 165 166 166 165 165 165 162 158 157 156 156 150 145 146 148 143 137 134 130 120 110 103 99 97 98 101 99 100 91 82 72 68 62 52 46 49 42 46 46
169 170 168 166 166 166 167 166 166 167 167 164 161 160 158 156 155 153 149 142 138 131 120 114 109 105 103 102 103 107 103 102 89 81 71 59 54 49 40 30 34 39 46
174 170 170 170 168 170 169 168 168 167 167 167 168 168 165 165 161 154 146 140 134 124 120 113 111 110 108 107 110 110 105 99 85 73 65 55 48 43 35 25 22 30 41
171 171 171 172 172 173 172 171 168 168 169 170 172 170 167 163 157 150 145 139 133 127 121 118 116 114 111 112 116 114 103 91 67 63 59 50 46 40 34 20 15 20 22
175 172 172 174 174 175 174 173 170 168 169 169 169 168 165 160 154 149 145 140 133 127 125 122 120 118 113 111 112 110 103 87 57 40 40 46 46 39 29 15 10 9 12
178 176 174 175 176 176 176 174 169 166 165 164 164 164 162 158 154 151 147 141 136 134 133 129 126 122 118 113 111 108 100 55 358 11 6 19 20 32 25 10 5 4 1
182 180 177 178 179 178 178 175 169 166 164 163 163 162 162 158 156 153 150 147 143 141 140 138 134 129 126 123 121 116 3 313 310 316 323 343 344 349 357 348 344 360 355
186 183 181 181 182 181 179 176 172 168 167 166 166 166 164 161 161 159 157 154 151 150 152 152 149 142 136 133 149 303 294 297 301 290 298 304 322 335 331 326 321 332 350
190 187 184 184 185 183 182 181 175 173 171 170 170 171 169 167 166 165 166 163 161 161 163 167 167 170 172 195 298 300 298 301 303 302 297 303 296 312 318 316 309 308 324
192 192 192 188 188 186 185 184 183 180 178 176 175 176 176 174 174 173 173 172 170 169 177 181 196 228 249 297 313 312 312 312 302 302 319 301 285 289 299 312 307 297 304
199 197 194 192 192 190 188 186 187 186 186 184 181 182 183 182 181 181 180 180 178 181 193 210 244 273 296 306 313 309 306 304 288 291 309 319 294 285 296 310 301 288 290
205 202 200 198 196 194 193 191 189 190 190 191 190 189 191 189 189 188 189 188 187 193 210 235 257 279 291 306 314 315 322 308 299 293 300 307 305 296 300 304 299 283 284
201 206 204 202 201 199 198 197 195 194 195 196 196 196 196 197 196 197 198 199 197 205 223 247 270 286 289 301 315 334 338 347 337 315 319 310 297 291 301 305 299 295 287
191 203 209 208 209 204 203 202 201 200 199 199 200 200 202 203 203 204 208 208 210 218 229 255 271 284 298 349 344 342 338 342 343 339 337 328 322 318 315 307 301 300 294
197 202 209 211 213 210 210 209 207 207 206 204 204 204 207 208 210 211 212 215 220 229 238 246 250 259 258 286 311 332 333 337 340 336 336 330 324 322 322 316 303 296 291
186 203 206 214 219 218 220 218 218 217 214 212 211 211 213 213 215 218 221 223 225 233 245 247 252 255 259 278 298 317 324 332 333 335 332 326 321 314 313 315 313 305 292
201 205 210 207 223 226 226 226 222 221 221 218 217 216 219 218 223 225 226 231 232 236 247 252 260 269 281 290 296 299 308 316 323 329 333 335 325 312 307 308 304 305 306
215 207 214 224 235 227 225 224 224 223 222 223 223 222 222 226 227 231 231 235 238 242 250 259 264 273 283 293 301 308 310 316 318 321 335 340 328 312 307 309 302 302 302
218 218 211 219 230 228 224 226 226 224 225 230 228 229 228 226 232 238 238 239 242 247 249 261 269 278 289 295 299 301 301 305 312 319 359 352 344 323 308 307 313 301 294
228 221 218 220 230 227 224 225 227 228 220 220 238 240 235 235 230 231 236 240 241 243 252 257 272 282 287 291 294 296 296 297 301 316 348 355 356 339 326 316 302 303 302
224 215 212 215 218 222 216 219 223 227 227 215 218 223 252 235 222 223 230 229 226 236 249 261 268 279 287 290 292 296 295 296 276 317 349 349 349 336 309 319 319 301 297
220 212 213 213 210 216 219 222 223 225 228 230 219 216 226 232 237 230 219 222 226 235 244 258 265 283 290 289 292 301 308 304 270 326 333 342 344 340 335 313 311 311 300
208 208 209 211 210 214 217 220 223 226 232 234 232 232 234 232 224 231 220 239 231 245 249 267 277 278 283 281 280 283 290 269 309 310 311 330 336 331 322 326 300 310 308
220 218 215 213 209 213 220 224 228 231 238 244 241 239 242 233 228 235 240 236 236 234 254 266 278 276 274 276 277 273 270 264 278 301 312 313 331 322 304 303 299 301 301
220 213 213 214 214 217 222 225 229 234 234 239 245 251 249 243 241 243 241 246 257 246 247 246 247 278 295 275 269 275 268 263 266 262 305 308 318 320 308 280 295 291 292
211 208 208 211 206 209 217 232 248 245 241 242 243 246 245 251 251 243 242 247 239 243 245 246 244 246 253 264 266 266 268 269 282 283 293 295 306 306 325 316 292 296 293